User: anonymous   Login
Location: Newark
(36.6333°N, 138.1833°E)
Time: 09:16:39
(UTC+00:00)
Language:

RS-15 - Orbit

View from above orbital plane
View from above orbital plane
View from above satellite
View from above satellite

Ground track
Ground track

The orbit data is extracted from the following two-line orbital elements,

1 23439U 94085A   20157.85843036 -.00000057 +00000-0 -40356-3 0  9994
2 23439 064.8164 265.0000 0148888 044.3933 316.8815 11.27568810047718
Epoch (UTC): 05 June 2020 20:36:08
Eccentricity: 0.0148888
inclination: 64.8164°
perigee height: 1897 km
apogee height: 2147 km
right ascension of ascending node: 265.0000°
argument of perigee: 44.3933°
revolutions per day: 11.27568810
mean anomaly at epoch: 316.8815°
orbit number at epoch: 4771

The dashed part of the orbit path shows where the satellite is in the earth's shadow,  

DLR